Time,TemperatureF,DewpointF,PressureIn,WindDirection,WindDirectionDegrees,WindSpeedMPH,WindSpeedGustMPH,Humidity,HourlyPrecipIn,Conditions,Clouds,dailyrainin,SolarRadiationWatts/m^2,SoftwareType,DateUTC
2013-02-19 00:03:00,41.9,35.5,29.70,SE,131,0.0,0.0,78,0.00,,,0.00,0,Wunderground v.1.15,2013-02-19 08:03:00,
2013-02-19 00:09:00,41.9,35.5,29.70,SE,131,0.0,0.0,78,0.00,,,0.00,0,Wunderground v.1.15,2013-02-19 08:09:00,
2013-02-19 00:19:00,42.1,35.7,29.70,SE,137,0.0,0.0,78,0.00,,,0.00,0,Wunderground v.1.15,2013-02-19 08:19:00,
2013-02-19 00:29:00,41.9,35.5,29.70,SE,137,0.0,0.0,78,0.00,,,0.00,0,Wunderground v.1.15,2013-02-19 08:29:00,
2013-02-19 00:39:00,41.8,35.4,29.70,SE,137,0.0,0.0,78,0.00,,,0.00,0,Wunderground v.1.15,2013-02-19 08:39:00,
2013-02-19 00:49:00,41.8,35.8,29.70,SE,136,0.0,0.0,79,0.00,,,0.00,0,Wunderground v.1.15,2013-02-19 08:49:00,
2013-02-19 00:59:00,41.6,35.9,29.70,SE,137,0.0,0.0,80,0.00,,,0.00,0,Wunderground v.1.15,2013-02-19 08:59:00,
2013-02-19 01:12:00,41.3,35.6,29.69,SE,136,0.0,0.0,80,0.00,,,0.00,0,Wunderground v.1.15,2013-02-19 09:12:00,
2013-02-19 01:18:00,41.2,35.5,29.69,SE,137,0.0,0.0,80,0.00,,,0.00,0,Wunderground v.1.15,2013-02-19 09:18:00,
2013-02-19 01:28:00,41.1,35.7,29.69,SE,136,0.0,0.0,81,0.00,,,0.00,0,Wunderground v.1.15,2013-02-19 09:28:00,
2013-02-19 01:38:00,40.6,35.2,29.69,SE,136,0.0,0.0,81,0.00,,,0.00,0,Wunderground v.1.15,2013-02-19 09:38:00,
2013-02-19 01:48:00,40.3,35.2,29.69,SE,136,0.0,0.0,82,0.00,,,0.00,0,Wunderground v.1.15,2013-02-19 09:48:00,
2013-02-19 01:59:00,40.3,35.5,29.69,SE,136,0.0,0.0,83,0.00,,,0.00,0,Wunderground v.1.15,2013-02-19 09:59:00,
2013-02-19 02:09:00,40.1,35.7,29.69,SE,136,0.0,0.0,84,0.00,,,0.00,0,Wunderground v.1.15,2013-02-19 10:09:00,
2013-02-19 02:19:00,39.8,35.7,29.69,SE,136,0.0,0.0,85,0.00,,,0.00,0,Wunderground v.1.15,2013-02-19 10:19:00,
2013-02-19 02:29:00,39.3,35.5,29.69,SE,137,0.0,0.0,86,0.00,,,0.00,0,Wunderground v.1.15,2013-02-19 10:29:00,
2013-02-19 02:43:00,39.1,35.8,29.69,SE,137,0.0,0.0,88,0.00,,,0.00,0,Wunderground v.1.15,2013-02-19 10:43:00,
2013-02-19 02:49:00,39.1,35.8,29.69,SE,137,0.0,0.0,88,0.00,,,0.00,0,Wunderground v.1.15,2013-02-19 10:49:00,
2013-02-19 02:59:00,38.9,35.9,29.69,SE,137,0.0,0.0,89,0.00,,,0.00,0,Wunderground v.1.15,2013-02-19 10:59:00,
2013-02-19 03:09:00,38.6,35.6,29.69,SE,137,0.0,0.0,89,0.00,,,0.00,0,Wunderground v.1.15,2013-02-19 11:09:00,
2013-02-19 03:24:00,38.2,35.2,29.69,SE,137,0.0,0.0,89,0.00,,,0.00,0,Wunderground v.1.15,2013-02-19 11:24:00,
2013-02-19 03:29:00,38.2,35.5,29.69,SE,137,0.0,1.0,90,0.00,,,0.00,0,Wunderground v.1.15,2013-02-19 11:29:00,
2013-02-19 03:39:00,38.5,35.8,29.68,SE,136,1.0,1.0,90,0.00,,,0.00,0,Wunderground v.1.15,2013-02-19 11:39:00,
2013-02-19 03:49:00,38.8,36.4,29.69,SE,136,1.0,1.0,91,0.00,,,0.00,0,Wunderground v.1.15,2013-02-19 11:49:00,
2013-02-19 03:59:00,38.8,36.4,29.69,SE,136,0.0,0.0,91,0.00,,,0.00,0,Wunderground v.1.15,2013-02-19 11:59:00,
2013-02-19 04:10:00,38.8,36.4,29.69,West,264,0.0,1.0,91,0.00,,,0.00,0,Wunderground v.1.15,2013-02-19 12:10:00,
2013-02-19 04:18:00,38.8,36.7,29.68,West,277,1.0,1.0,92,0.00,,,0.00,0,Wunderground v.1.15,2013-02-19 12:18:00,
2013-02-19 04:28:00,38.9,36.8,29.68,West,277,0.0,1.0,92,0.00,,,0.00,0,Wunderground v.1.15,2013-02-19 12:28:00,
2013-02-19 04:38:00,39.1,37.0,29.68,West,280,1.0,1.0,92,0.00,,,0.00,0,Wunderground v.1.15,2013-02-19 12:38:00,
2013-02-19 04:48:00,39.2,37.1,29.69,WNW,294,1.0,1.0,92,0.00,,,0.00,0,Wunderground v.1.15,2013-02-19 12:48:00,
2013-02-19 04:58:00,39.2,36.8,29.69,WNW,294,1.0,1.0,91,0.00,,,0.00,0,Wunderground v.1.15,2013-02-19 12:58:00,
2013-02-19 05:09:00,39.3,36.9,29.69,WNW,294,0.0,1.0,91,0.00,,,0.00,0,Wunderground v.1.15,2013-02-19 13:09:00,
2013-02-19 05:23:00,39.5,36.8,29.69,WNW,294,1.0,1.0,90,0.00,,,0.00,0,Wunderground v.1.15,2013-02-19 13:23:00,
2013-02-19 05:29:00,39.5,36.8,29.69,WNW,294,1.0,1.0,90,0.00,,,0.00,0,Wunderground v.1.15,2013-02-19 13:29:00,
2013-02-19 05:39:00,39.6,36.6,29.69,WNW,294,0.0,1.0,89,0.00,,,0.00,0,Wunderground v.1.15,2013-02-19 13:39:00,
2013-02-19 05:54:00,39.6,36.6,29.70,WNW,294,0.0,0.0,89,0.00,,,0.00,0,Wunderground v.1.15,2013-02-19 13:54:00,
2013-02-19 05:59:00,39.6,36.6,29.70,WNW,294,0.0,1.0,89,0.00,,,0.00,0,Wunderground v.1.15,2013-02-19 13:59:00,
2013-02-19 06:09:00,39.9,36.9,29.70,WNW,294,0.0,0.0,89,0.00,,,0.00,0,Wunderground v.1.15,2013-02-19 14:09:00,
2013-02-19 06:18:00,40.1,37.1,29.70,WNW,294,0.0,1.0,89,0.00,,,0.00,0,Wunderground v.1.15,2013-02-19 14:18:00,
2013-02-19 06:28:00,40.1,37.1,29.70,WNW,294,0.0,0.0,89,0.00,,,0.00,0,Wunderground v.1.15,2013-02-19 14:28:00,
2013-02-19 06:38:00,40.1,37.1,29.71,WNW,294,0.0,0.0,89,0.00,,,0.00,0,Wunderground v.1.15,2013-02-19 14:38:00,
2013-02-19 06:53:00,40.1,37.1,29.71,WNW,294,0.0,0.0,89,0.00,,,0.00,0,Wunderground v.1.15,2013-02-19 14:53:00,
2013-02-19 06:59:00,40.1,36.8,29.71,WNW,294,0.0,0.0,88,0.00,,,0.00,0,Wunderground v.1.15,2013-02-19 14:59:00,
2013-02-19 07:08:00,40.1,36.8,29.71,WNW,294,0.0,0.0,88,0.00,,,0.00,5,Wunderground v.1.15,2013-02-19 15:08:00,
2013-02-19 07:19:00,40.1,36.8,29.71,WNW,294,0.0,0.0,88,0.00,,,0.00,11,Wunderground v.1.15,2013-02-19 15:19:00,
2013-02-19 07:29:00,40.2,36.9,29.71,WNW,294,0.0,0.0,88,0.00,,,0.00,14,Wunderground v.1.15,2013-02-19 15:29:00,
2013-02-19 07:43:00,40.3,37.0,29.72,WNW,294,0.0,0.0,88,0.00,,,0.00,25,Wunderground v.1.15,2013-02-19 15:43:00,
2013-02-19 07:49:00,40.5,37.2,29.72,WNW,294,0.0,1.0,88,0.00,,,0.00,28,Wunderground v.1.15,2013-02-19 15:49:00,
2013-02-19 07:59:00,40.6,37.3,29.72,NNW,342,1.0,1.0,88,0.00,,,0.00,35,Wunderground v.1.15,2013-02-19 15:59:00,
2013-02-19 08:09:00,41.1,37.5,29.72,NNW,342,1.0,2.0,87,0.00,,,0.00,40,Wunderground v.1.15,2013-02-19 16:09:00,
2013-02-19 08:18:00,41.2,37.6,29.73,NNW,342,1.0,2.0,87,0.00,,,0.00,53,Wunderground v.1.15,2013-02-19 16:18:00,
2013-02-19 08:28:00,41.5,37.6,29.73,NNW,329,0.0,1.0,86,0.00,,,0.00,72,Wunderground v.1.15,2013-02-19 16:28:00,
2013-02-19 08:38:00,41.9,37.4,29.73,NNW,329,0.0,1.0,84,0.00,,,0.00,88,Wunderground v.1.15,2013-02-19 16:38:00,
2013-02-19 08:48:00,42.6,38.1,29.74,NW,306,0.0,0.0,84,0.00,,,0.00,187,Wunderground v.1.15,2013-02-19 16:48:00,
2013-02-19 08:58:00,43.5,38.1,29.74,NNW,329,0.0,0.0,81,0.00,,,0.00,174,Wunderground v.1.15,2013-02-19 16:58:00,
2013-02-19 09:08:00,43.5,37.4,29.74,NW,323,2.0,6.0,79,0.00,,,0.00,322,Wunderground v.1.15,2013-02-19 17:08:00,
2013-02-19 09:19:00,43.5,37.4,29.74,North,352,3.0,3.0,79,0.00,,,0.00,262,Wunderground v.1.15,2013-02-19 17:19:00,
2013-02-19 09:29:00,43.8,37.4,29.74,NNW,329,3.0,3.0,78,0.00,,,0.00,213,Wunderground v.1.15,2013-02-19 17:29:00,
2013-02-19 09:39:00,43.6,37.5,29.75,NW,313,4.0,4.0,79,0.00,,,0.00,178,Wunderground v.1.15,2013-02-19 17:39:00,
2013-02-19 09:49:00,43.5,36.4,29.75,WSW,250,4.0,4.0,76,0.00,,,0.00,213,Wunderground v.1.15,2013-02-19 17:49:00,
2013-02-19 09:59:00,43.9,35.5,29.75,SSW,193,3.0,4.0,72,0.00,,,0.00,181,Wunderground v.1.15,2013-02-19 17:59:00,
2013-02-19 10:09:00,44.1,33.5,29.75,NNW,344,3.0,6.0,66,0.00,,,0.00,211,Wunderground v.1.15,2013-02-19 18:09:00,
2013-02-19 10:18:00,44.5,33.5,29.75,NW,320,2.0,2.0,65,0.00,,,0.00,201,Wunderground v.1.15,2013-02-19 18:18:00,
2013-02-19 10:28:00,44.6,33.9,29.75,NW,312,1.0,2.0,66,0.00,,,0.00,225,Wunderground v.1.15,2013-02-19 18:28:00,
2013-02-19 10:38:00,45.4,33.9,29.75,NW,311,0.0,1.0,64,0.00,,,0.00,183,Wunderground v.1.15,2013-02-19 18:38:00,
2013-02-19 10:48:00,45.4,33.9,29.75,NW,311,1.0,2.0,64,0.00,,,0.00,234,Wunderground v.1.15,2013-02-19 18:48:00,
2013-02-19 10:59:00,45.5,35.2,29.75,NW,304,3.0,5.0,67,0.00,,,0.00,209,Wunderground v.1.15,2013-02-19 18:59:00,
2013-02-19 11:09:00,45.1,35.5,29.76,WNW,288,2.0,3.0,69,0.00,,,0.00,113,Wunderground v.1.15,2013-02-19 19:09:00,
2013-02-19 11:19:00,45.4,35.8,29.76,WNW,299,3.0,5.0,69,0.00,,,0.00,493,Wunderground v.1.15,2013-02-19 19:19:00,
2013-02-19 11:29:00,46.5,36.1,29.76,NNW,332,2.0,5.0,67,0.00,,,0.00,586,Wunderground v.1.15,2013-02-19 19:29:00,
2013-02-19 11:43:00,46.0,35.7,29.76,WNW,287,4.0,4.0,67,0.00,,,0.00,97,Wunderground v.1.15,2013-02-19 19:43:00,
2013-02-19 11:53:00,46.5,36.1,29.76,NNW,329,4.0,4.0,67,0.00,,,0.00,530,Wunderground v.1.15,2013-02-19 19:53:00,
2013-02-19 11:59:00,47.4,35.8,29.76,ESE,106,4.0,4.0,64,0.00,,,0.00,630,Wunderground v.1.15,2013-02-19 19:59:00,
2013-02-19 12:09:00,47.6,36.4,29.76,ESE,114,4.0,6.0,65,0.00,,,0.00,528,Wunderground v.1.15,2013-02-19 20:09:00,
2013-02-19 12:18:00,47.9,36.3,29.75,WNW,292,5.0,5.0,64,0.00,,,0.00,517,Wunderground v.1.15,2013-02-19 20:18:00,
2013-02-19 12:28:00,48.2,36.6,29.75,NW,319,5.0,7.0,64,0.00,,,0.00,517,Wunderground v.1.15,2013-02-19 20:28:00,
2013-02-19 12:38:00,47.6,36.0,29.76,NW,323,7.0,7.0,64,0.00,,,0.00,473,Wunderground v.1.15,2013-02-19 20:38:00,
2013-02-19 12:48:00,47.6,35.6,29.76,NW,309,7.0,10.0,63,0.00,,,0.00,477,Wunderground v.1.15,2013-02-19 20:48:00,
2013-02-19 12:59:00,47.7,35.3,29.76,WNW,299,6.0,7.0,62,0.00,,,0.00,565,Wunderground v.1.15,2013-02-19 20:59:00,
2013-02-19 13:09:00,47.6,34.8,29.77,West,281,6.0,6.0,61,0.00,,,0.00,468,Wunderground v.1.15,2013-02-19 21:09:00,
2013-02-19 13:19:00,48.0,34.8,29.77,WNW,301,4.0,7.0,60,0.00,,,0.00,484,Wunderground v.1.15,2013-02-19 21:19:00,
2013-02-19 13:29:00,48.2,33.7,29.77,NW,304,5.0,6.0,57,0.00,,,0.00,477,Wunderground v.1.15,2013-02-19 21:29:00,
2013-02-19 13:39:00,48.3,34.2,29.77,NNW,339,6.0,10.0,58,0.00,,,0.00,466,Wunderground v.1.15,2013-02-19 21:39:00,
2013-02-19 13:49:00,47.6,34.0,29.77,WNW,296,7.0,13.0,59,0.00,,,0.00,457,Wunderground v.1.15,2013-02-19 21:49:00,
2013-02-19 14:03:00,48.3,35.5,29.78,North,349,6.0,6.0,61,0.00,,,0.00,503,Wunderground v.1.15,2013-02-19 22:03:00,
2013-02-19 14:14:00,48.0,35.2,29.78,WNW,294,8.0,8.0,61,0.00,,,0.00,380,Wunderground v.1.15,2013-02-19 22:14:00,
2013-02-19 14:23:00,48.3,35.0,29.78,NNW,346,6.0,6.0,60,0.00,,,0.00,410,Wunderground v.1.15,2013-02-19 22:23:00,
2013-02-19 14:28:00,47.9,33.4,29.78,NNW,330,7.0,7.0,57,0.00,,,0.00,436,Wunderground v.1.15,2013-02-19 22:28:00,
2013-02-19 14:38:00,48.8,34.2,29.78,North,0,5.0,7.0,57,0.00,,,0.00,385,Wunderground v.1.15,2013-02-19 22:38:00,
2013-02-19 14:48:00,48.3,34.2,29.78,North,359,6.0,7.0,58,0.00,,,0.00,361,Wunderground v.1.15,2013-02-19 22:48:00,
2013-02-19 14:58:00,48.2,31.9,29.78,North,350,6.0,7.0,53,0.00,,,0.00,341,Wunderground v.1.15,2013-02-19 22:58:00,
2013-02-19 15:09:00,47.4,33.8,29.79,NNW,333,7.0,9.0,59,0.00,,,0.00,322,Wunderground v.1.15,2013-02-19 23:09:00,
2013-02-19 15:23:00,47.4,33.8,29.80,NNW,336,6.0,6.0,59,0.00,,,0.00,289,Wunderground v.1.15,2013-02-19 23:23:00,
2013-02-19 15:29:00,47.1,33.9,29.80,North,354,7.0,7.0,60,0.00,,,0.00,274,Wunderground v.1.15,2013-02-19 23:29:00,
2013-02-19 15:43:00,47.6,33.5,29.80,North,359,6.0,7.0,58,0.00,,,0.00,239,Wunderground v.1.15,2013-02-19 23:43:00,
2013-02-19 15:54:00,47.4,34.2,29.80,NW,320,6.0,7.0,60,0.00,,,0.00,65,Wunderground v.1.15,2013-02-19 23:54:00,
2013-02-19 15:59:00,47.3,34.1,29.80,WNW,299,6.0,12.0,60,0.00,,,0.00,62,Wunderground v.1.15,2013-02-19 23:59:00,
2013-02-19 16:09:00,46.8,34.0,29.80,NW,312,6.0,6.0,61,0.00,,,0.00,32,Wunderground v.1.15,2013-02-20 00:09:00,
2013-02-19 16:18:00,46.7,34.4,29.81,WNW,291,7.0,7.0,62,0.00,,,0.00,30,Wunderground v.1.15,2013-02-20 00:18:00,
2013-02-19 16:28:00,46.5,34.6,29.81,North,357,6.0,7.0,63,0.00,,,0.00,32,Wunderground v.1.15,2013-02-20 00:28:00,
2013-02-19 16:38:00,46.4,34.5,29.81,NW,306,6.0,10.0,63,0.00,,,0.00,32,Wunderground v.1.15,2013-02-20 00:38:00,
2013-02-19 16:48:00,46.2,35.8,29.81,WNW,301,5.0,6.0,67,0.00,,,0.00,28,Wunderground v.1.15,2013-02-20 00:48:00,
2013-02-19 16:59:00,45.8,36.6,29.81,North,353,5.0,10.0,70,0.00,,,0.00,21,Wunderground v.1.15,2013-02-20 00:59:00,
2013-02-19 17:09:00,45.4,36.2,29.81,NW,322,5.0,5.0,70,0.00,,,0.00,18,Wunderground v.1.15,2013-02-20 01:09:00,
2013-02-19 17:19:00,44.9,36.1,29.82,WNW,299,4.0,8.0,71,0.00,,,0.00,12,Wunderground v.1.15,2013-02-20 01:19:00,
2013-02-19 17:29:00,44.5,35.7,29.82,NW,315,4.0,8.0,71,0.00,,,0.00,9,Wunderground v.1.15,2013-02-20 01:29:00,
2013-02-19 17:39:00,44.2,35.4,29.82,WNW,301,4.0,4.0,71,0.00,,,0.00,5,Wunderground v.1.15,2013-02-20 01:39:00,
2013-02-19 17:49:00,44.1,35.6,29.82,WNW,292,3.0,5.0,72,0.00,,,0.00,0,Wunderground v.1.15,2013-02-20 01:49:00,
2013-02-19 17:59:00,43.9,36.1,29.82,WNW,301,2.0,3.0,74,0.00,,,0.00,0,Wunderground v.1.15,2013-02-20 01:59:00,
2013-02-19 18:09:00,43.6,36.2,29.83,NW,320,2.0,4.0,75,0.00,,,0.00,0,Wunderground v.1.15,2013-02-20 02:09:00,
2013-02-19 18:23:00,43.5,36.4,29.83,West,278,2.0,2.0,76,0.00,,,0.00,0,Wunderground v.1.15,2013-02-20 02:23:00,
2013-02-19 18:28:00,43.3,36.2,29.83,West,281,1.0,2.0,76,0.00,,,0.00,0,Wunderground v.1.15,2013-02-20 02:28:00,
2013-02-19 18:43:00,43.2,36.5,29.84,WNW,301,1.0,1.0,77,0.00,,,0.00,0,Wunderground v.1.15,2013-02-20 02:43:00,
2013-02-19 18:48:00,43.1,36.4,29.84,WNW,298,1.0,1.0,77,0.00,,,0.00,0,Wunderground v.1.15,2013-02-20 02:48:00,
2013-02-19 18:58:00,42.9,36.2,29.84,NW,326,1.0,1.0,77,0.00,,,0.00,0,Wunderground v.1.15,2013-02-20 02:58:00,
2013-02-19 19:08:00,42.6,36.2,29.85,NW,326,0.0,2.0,78,0.00,,,0.00,0,Wunderground v.1.15,2013-02-20 03:08:00,
2013-02-19 19:19:00,42.3,35.9,29.86,NW,325,0.0,1.0,78,0.00,,,0.00,0,Wunderground v.1.15,2013-02-20 03:19:00,
2013-02-19 19:29:00,42.2,36.2,29.86,NW,309,0.0,0.0,79,0.00,,,0.00,0,Wunderground v.1.15,2013-02-20 03:29:00,
2013-02-19 19:39:00,42.1,36.4,29.86,NW,306,0.0,0.0,80,0.00,,,0.00,0,Wunderground v.1.15,2013-02-20 03:39:00,
2013-02-19 19:49:00,41.9,36.5,29.87,NW,308,0.0,0.0,81,0.00,,,0.00,0,Wunderground v.1.15,2013-02-20 03:49:00,
2013-02-19 19:59:00,41.6,36.2,29.87,NW,306,0.0,0.0,81,0.00,,,0.00,0,Wunderground v.1.15,2013-02-20 03:59:00,
2013-02-19 20:09:00,41.3,36.2,29.87,NW,308,0.0,0.0,82,0.00,,,0.00,0,Wunderground v.1.15,2013-02-20 04:09:00,
2013-02-19 20:19:00,41.2,36.4,29.88,NW,308,0.0,0.0,83,0.00,,,0.00,0,Wunderground v.1.15,2013-02-20 04:19:00,
2013-02-19 20:28:00,41.1,36.6,29.88,NW,308,0.0,0.0,84,0.00,,,0.00,0,Wunderground v.1.15,2013-02-20 04:28:00,
2013-02-19 20:38:00,41.1,36.6,29.88,NW,306,0.0,0.0,84,0.00,,,0.00,0,Wunderground v.1.15,2013-02-20 04:38:00,
2013-02-19 20:48:00,41.1,36.6,29.89,NW,308,0.0,0.0,84,0.00,,,0.00,0,Wunderground v.1.15,2013-02-20 04:48:00,
2013-02-19 20:58:00,41.1,36.9,29.89,NW,308,0.0,0.0,85,0.00,,,0.00,0,Wunderground v.1.15,2013-02-20 04:58:00,
2013-02-19 21:03:00,41.1,36.9,29.90,NW,308,0.0,0.0,85,0.00,,,0.00,0,Wunderground v.1.15,2013-02-20 05:03:00,
2013-02-19 21:08:00,41.1,36.9,29.90,NW,308,0.0,0.0,85,0.00,,,0.00,0,Wunderground v.1.15,2013-02-20 05:08:00,
2013-02-19 21:13:00,40.9,36.7,29.90,NW,308,0.0,0.0,85,0.00,,,0.00,0,Wunderground v.1.15,2013-02-20 05:13:00,
2013-02-19 21:18:00,40.9,37.0,29.90,NW,306,0.0,0.0,86,0.00,,,0.00,0,Wunderground v.1.15,2013-02-20 05:18:00,
2013-02-19 21:23:00,40.9,37.0,29.90,NW,306,0.0,0.0,86,0.00,,,0.00,0,Wunderground v.1.15,2013-02-20 05:23:00,
2013-02-19 21:29:00,40.8,36.9,29.90,NW,306,0.0,0.0,86,0.00,,,0.00,0,Wunderground v.1.15,2013-02-20 05:29:00,
2013-02-19 21:39:00,40.5,36.9,29.90,WNW,298,0.0,0.0,87,0.00,,,0.00,0,Wunderground v.1.15,2013-02-20 05:39:00,
2013-02-19 21:53:00,40.1,36.8,29.91,NW,311,0.0,0.0,88,0.00,,,0.00,0,Wunderground v.1.15,2013-02-20 05:53:00,
2013-02-19 21:59:00,40.1,37.1,29.91,NW,309,0.0,0.0,89,0.00,,,0.00,0,Wunderground v.1.15,2013-02-20 05:59:00,
2013-02-19 22:09:00,40.1,37.1,29.91,NW,309,0.0,0.0,89,0.00,,,0.00,0,Wunderground v.1.15,2013-02-20 06:09:00,
2013-02-19 22:19:00,39.9,36.9,29.92,NW,311,0.0,0.0,89,0.00,,,0.00,0,Wunderground v.1.15,2013-02-20 06:19:00,
2013-02-19 22:34:00,40.1,37.1,29.92,NW,311,0.0,0.0,89,0.00,,,0.00,0,Wunderground v.1.15,2013-02-20 06:34:00,
2013-02-19 22:39:00,40.2,36.9,29.92,NW,311,0.0,0.0,88,0.00,,,0.00,0,Wunderground v.1.15,2013-02-20 06:39:00,
2013-02-19 22:49:00,40.1,36.5,29.93,NW,311,0.0,0.0,87,0.00,,,0.00,0,Wunderground v.1.15,2013-02-20 06:49:00,
2013-02-19 22:59:00,39.5,36.0,29.93,NW,309,0.0,0.0,87,0.00,,,0.00,0,Wunderground v.1.15,2013-02-20 06:59:00,
2013-02-19 23:09:00,39.3,35.8,29.94,NW,309,0.0,0.0,87,0.00,,,0.00,0,Wunderground v.1.15,2013-02-20 07:09:00,
2013-02-19 23:19:00,39.2,35.4,29.94,NW,304,0.0,0.0,86,0.00,,,0.00,0,Wunderground v.1.15,2013-02-20 07:19:00,
2013-02-19 23:28:00,38.9,35.6,29.94,NW,311,0.0,0.0,88,0.00,,,0.00,0,Wunderground v.1.15,2013-02-20 07:28:00,
2013-02-19 23:38:00,38.9,35.9,29.94,NW,309,0.0,0.0,89,0.00,,,0.00,0,Wunderground v.1.15,2013-02-20 07:38:00,
2013-02-19 23:48:00,39.2,36.5,29.95,NW,311,0.0,0.0,90,0.00,,,0.00,0,Wunderground v.1.15,2013-02-20 07:48:00,
2013-02-19 23:58:00,39.2,36.8,29.95,NW,311,0.0,0.0,91,0.00,,,0.00,0,Wunderground v.1.15,2013-02-20 07:58:00,